Regional Weather Roundup
Issued by NWS

Home | Current Version | Previous Version | Text Only | Print | Product List | Glossary On
Versions: 1 2 3 4 5 6 7 8 9 10 11 12 13 14 15 16 17 18 19 20 21 22 23 24 25 26 27 28 29 30 31 32 33 34 35 36 37 38 39 40 41 42 43 44 45 46 47 48 49 50
000
ASUS42 KKEY 192310
RWRKEY

FLORIDA REGIONAL WEATHER ROUNDUP FOR THE FLORIDA KEYS
NATIONAL WEATHER SERVICE KEY WEST FLORIDA
600 PM EST FRI DEC 19 2014

...SOUTH FLORIDA AND THE KEYS...

CITY           SKY/WX    TMP DP  RH WIND       PRES   REMARKS
FORT MYERS     CLEAR     71  51  49 NW5       30.04R
SW REGIONAL AP CLEAR     69  54  58 CALM      30.04R
NAPLES         CLEAR     68  56  65 NW3       30.04R
MIAMI          MOCLDY    72  57  59 E9        30.05R
WEST KENDALL   CLEAR     69  56  62 SE7       30.05R
HOMESTEAD      CLEAR     69  60  72 E3        30.04S
MARATHON       PTCLDY    72  62  71 E3        30.03R
BOCA CHICA NAS MOCLDY    72  63  73 E9        30.03S
KEY WEST INTL  CLEAR     72  64  76 E6        30.03S

...INTERNATIONAL WEATHER...

CITY           SKY/WX    TMP DP  RH WIND       PRES   REMARKS
NASSAU BAHAMAS PTCLDY    72  61  68 CALM      30.06R
CANCUN MEXICO  MOCLDY    75  73  94 E9        29.93R
COZUMEL MEXICO CLOUDY    75  73  94 E6        29.91S

ADJACENT COASTAL WATERS...

STATION/POSITION TIME  SKY/WX   TEMP    WIND        PRES    WAVE
                                AIR SEA DIR/SP/G            HT/PER
                 (UTC)          (F)     (DEG/KT/KT) (MB)    (FT/S)
PULASKI SHOAL LI 2200            70      90/ 12/ 14 1016.4S
SAND KEY         2241            72      70/ 12/ 14 1016.7F
SOMBRERO KEY     2300            74     110/ 11/ 13 1017.7R
LONG KEY         2200            72 70   80/  6/  7 1017.4R
MOLASSES REEF    2300            73 76  110/ 11/ 12 1017.2R
FOWEY ROCKS      2300            73 76  100/ 13/ 15 1017.6R
Buoy 42080       NOT AVBL

$$


USA.gov is the U.S. government's official web portal to all federal, state and local government web resources and services.